Regional Weather Roundup
Issued by NWS Raleigh/Durham, NC

Home | Current Version | Previous Version | Text Only | Print | Product List | Glossary On
Versions: 1 2 3 4 5 6 7 8 9 10 11 12 13 14 15 16 17 18 19 20 21 22 23 24 25 26 27 28 29 30 31 32 33 34 35 36 37 38 39 40 41 42 43 44 45 46 47 48 49 50
000
ASUS42 KRAH 061310
RWRRAH
NORTH CAROLINA WEATHER ROUNDUP
NATIONAL WEATHER SERVICE RALEIGH NC
900 AM EDT FRI MAY 06 2016

NOTE: "FAIR" INDICATES FEW OR NO CLOUDS BELOW 12,000 FEET WITH NO
SIGNIFICANT WEATHER AND/OR OBSTRUCTIONS TO VISIBILITY.

NCZ001-053-055-056-065-067-061400-
WESTERN NORTH CAROLINA

CITY           SKY/WX    TMP DP  RH WIND       PRES   REMARKS
ASHEVILLE      LGT RAIN  54  38  54 N20       29.86R
JEFFERSON      CLOUDY    44  39  83 NW15G25   29.79S
MORGANTON      SUNNY     56  44  62 W9        29.86R
HICKORY        SUNNY     57  46  66 NW8       29.80R
RUTHERFORDTON  MOSUNNY   58  44  60 N5        29.83R
MOUNT AIRY     CLOUDY    55  48  76 NW6       29.78R
BOONE          MOSUNNY   45  39  81 NW20G28   29.81R
$$

NCZ021-022-025-041-071-084-088-061400-
CENTRAL NORTH CAROLINA

CITY           SKY/WX    TMP DP  RH WIND       PRES   REMARKS
CHARLOTTE      MOSUNNY   56  48  74 NW9       29.79R
GREENSBORO     CLOUDY    53  50  89 NW8       29.74R
WINSTON-SALEM  CLOUDY    54  47  77 NW12      29.76R
RALEIGH-DURHAM LGT RAIN  52  52 100 NW5       29.72R
FORT BRAGG     PTSUNNY   54  50  85 NW7       29.72R
FAYETTEVILLE   PTSUNNY   54  49  83 NW9       29.73R
BURLINGTON     CLOUDY    53  50  89 CALM      29.74R
LAURINBURG     PTSUNNY   57  48  72 NW13      29.75F
$$

NCZ011-015-027-028-043-044-047-080-103-061400-
NORTHEASTERN NORTH CAROLINA

CITY           SKY/WX    TMP DP  RH WIND       PRES   REMARKS
ROCKY MT-WILSO CLOUDY    53  52  96 NW7       29.70R
GREENVILLE     LGT RAIN  52  52 100 N6        29.72R
WASHINGTON     CLOUDY    53  50  92 S3        29.68R
ELIZABETH CITY CLOUDY    55  49  80 N3        29.68R
MANTEO         CLOUDY    55  51  86 CALM      29.68R
CAPE HATTERAS  MOSUNNY   58  51  78 SW10      29.68R
$$

NCZ078-087-090-091-093-098-101-061400-
SOUTHEASTERN NORTH CAROLINA

CITY           SKY/WX    TMP DP  RH WIND       PRES   REMARKS
LUMBERTON      CLOUDY    54  48  80 W10       29.75R
GOLDSBORO      PTSUNNY   54  54 100 NW9       29.69R
KINSTON        CLOUDY    54  52  94 NW7       29.70R
KENANSVILLE    CLOUDY    53  48  84 W5        29.73R
NEW BERN       CLOUDY    52  50  93 SW7       29.71R FOG
CHERRY POINT   CLOUDY    53  49  86 W8        29.71R
BEAUFORT       CLOUDY    52  48  86 W14       29.71R
JACKSONVILLE   CLOUDY    53  49  86 W8        29.71R
WILMINGTON     CLOUDY    52  48  86 W10       29.74R
$$




USA.gov is the U.S. government's official web portal to all federal, state and local government web resources and services.